SCP
0 0 0 0 0 0 0 0 0 0 0 0 0 0 0 0 0 0 0 -0 0 0 -0 -0 -0 -1 -1 -0 0 0 0 0
0 0 0 0 0 0 0 0 0 0 0 0 -0 0 -0 0 0 0 0 0 0 0 -0 -0 -0 -0 -0 -0 -0 0 0 0
0 0 0 0 0 0 0 0 0 0 0 0 0 0 0 0 0 0 0 0 -0 -0 -0 -0 -0 -0 -0 -0 -0 0 0 0
0 0 -0 0 0 0 0 -0 0 0 0 0 0 0 0 0 0 0 0 0 0 -0 -0 -0 -0 -0 -0 -0 0 0 0 1
0 0 -0 0 0 0 0 0 0 0 0 0 0 0 0 0 0 0 0 0 0 0 -0 0 0 0 -0 -0 0 0 0 0
0 0 -0 0 0 0 0 0 0 0 0 0 0 0 0 0 0 0 0 0 0 0 0 0 0 0 0 -0 0 0 0 0
0 0 0 0 0 0 0 0 0 0 0 0 0 0 0 0 0 0 0 0 0 0 0 0 0 0 0 0 0 0 0 0
0 0 0 0 0 0 0 0 0 -0 0 0 0 0 0 0 0 0 0 0 0 0 0 0 0 0 0 0 0 0 0 0
0 0 0 0 0 0 0 0 0 0 0 0 0 0 0 0 0 0 0 1 0 0 0 0 0 0 0 0 0 0 0 0
0 0 0 0 0 0 0 0 0 0 -0 -0 0 0 0 0 0 0 1 1 0 0 0 0 0 0 0 0 0 0 0 0
0 0 0 0 0 0 0 0 0 0 0 0 0 0 0 0 0 0 1 1 1 1 0 0 0 0 0 0 0 0 0 0
0 0 0 0 0 0 0 0 0 0 0 0 -0 0 0 0 0 0 0 0 2 1 0 0 0 0 0 0 0 0 0 0
0 0 0 0 0 0 0 0 0 0 0 0 -0 -0 0 0 0 0 0 0 0 1 0 0 0 0 0 0 0 0 0 0
0 0 0 0 0 0 -0 0 0 0 0 0 -0 -0 0 0 0 0 0 0 0 1 0 0 0 0 0 0 0 0 0 0
0 0 0 0 0 0 0 0 0 0 0 0 0 0 0 0 0 0 0 0 1 1 1 1 0 1 1 1 1 1 1 1
0 0 0 0 0 0 0 0 0 0 0 0 0 0 0 0 0 0 0 0 0 2 1 1 1 2 2 2 1 1 1 1
0 0 0 0 0 0 0 0 0 0 0 0 0 0 0 0 0 0 0 0 0 3 2 3 5 5 3 2 2 1 1 1
0 0 0 0 0 0 0 0 -0 0 0 0 0 0 0 0 0 0 0 0 0 1 6 5 4 5 3 2 1 1 1 0
0 0 0 0 0 0 -0 -0 -0 -0 -0 -0 -0 0 0 0 0 0 0 0 0 0 3 6 5 2 1 1 1 1 1 1
0 0 0 0 0 0 0 0 0 0 0 0 0 -0 0 0 0 0 0 0 0 0 1 2 1 2 1 1 1 1 1 1
Wind_Speed_500mb
8 7 12 11 7 6 26 64 53 17 11 22 24 32 71 80 71 75 72 73 73 69 60 55 49 43 40 38 35 32 29 27
5 21 14 12 19 29 28 44 45 40 2 16 40 56 69 74 79 75 72 73 73 69 60 55 48 42 39 37 34 31 28 26
6 21 12 15 21 28 21 22 47 55 13 26 52 46 60 73 78 79 75 75 73 67 60 55 48 40 36 34 31 30 30 29
11 22 16 15 25 38 12 32 47 49 31 9 41 57 74 76 78 81 79 75 71 65 59 54 50 43 37 33 31 29 30 29
7 14 18 14 31 27 14 17 17 44 12 5 58 64 75 76 77 83 78 77 72 64 60 54 50 44 37 32 30 30 31 30
10 14 17 11 17 40 25 40 28 26 9 2 45 68 80 77 75 84 80 75 70 66 63 59 53 46 39 33 32 33 34 34
13 14 11 46 8 41 51 40 46 33 22 17 37 72 80 73 73 78 73 69 67 64 62 57 52 49 44 37 34 35 37 39
10 10 15 39 37 36 41 54 32 19 25 27 19 60 67 72 75 76 74 73 68 64 61 58 55 53 48 42 37 35 38 41
22 32 41 44 55 47 30 24 50 22 30 38 29 26 23 59 75 73 76 76 71 68 65 61 58 56 53 48 40 36 38 42
37 47 44 32 57 44 38 42 68 65 46 43 39 36 47 50 73 79 79 74 74 73 68 63 57 57 56 52 43 37 34 38
46 52 47 55 52 52 68 61 69 78 63 44 46 47 38 31 47 80 86 79 73 71 68 61 61 59 57 53 46 37 36 37
21 31 31 21 33 46 71 64 62 67 79 60 49 52 56 38 16 36 43 78 77 75 68 67 64 58 54 52 47 43 40 37
10 5 8 29 28 37 47 46 47 58 72 73 54 53 58 61 51 41 33 22 89 79 80 67 66 61 52 50 46 46 43 40
8 16 10 5 43 33 45 54 60 60 56 83 75 71 76 73 69 60 42 61 41 55 91 80 71 57 47 44 44 45 44 42
12 15 12 8 32 14 32 33 38 48 60 66 82 79 77 75 71 72 63 55 73 64 58 84 74 55 47 44 47 46 47 48
4 10 4 18 30 17 28 37 29 42 47 52 59 80 83 80 73 66 75 61 74 75 70 59 67 58 52 52 52 50 53 53
5 11 8 19 30 29 20 29 30 44 55 63 73 69 79 81 73 75 72 81 55 77 73 75 74 65 65 65 61 58 57 53
12 12 12 15 43 35 14 14 34 45 53 60 68 74 78 75 94 80 79 84 72 80 79 79 77 74 71 68 67 62 55 55
18 22 14 11 36 32 31 26 30 41 51 62 65 73 81 80 81 100 84 79 80 64 87 88 83 78 73 69 69 64 62 61
21 17 8 9 31 23 20 25 25 41 54 61 78 75 81 82 84 89 96 82 73 65 88 97 87 85 78 75 75 68 60 63
Wind_Direction_500mb
130 180 192 234 239 272 289 303 293 276 174 137 165 159 152 156 163 164 166 171 171 170 171 168 167 172 179 182 182 183 184 186
117 247 253 250 296 307 312 325 336 298 161 141 152 149 155 163 163 167 168 175 173 174 176 176 174 179 186 191 193 196 199 202
245 260 268 284 291 314 304 298 327 317 286 152 162 157 159 164 166 173 173 177 178 176 180 183 180 182 192 199 204 206 209 213
229 259 284 275 303 292 297 308 327 344 316 144 179 165 165 168 172 178 177 181 183 180 185 189 185 184 194 202 210 215 220 222
260 271 289 285 307 292 279 290 309 333 323 53 179 177 172 172 175 178 183 184 186 185 188 194 191 189 196 206 216 224 229 234
224 254 276 275 313 308 332 315 340 354 300 221 186 179 176 175 179 182 185 188 188 190 193 195 196 196 199 208 218 228 234 237
231 234 276 298 321 308 323 315 325 4 16 22 193 178 175 173 181 186 189 193 194 197 199 200 202 202 203 209 222 230 237 242
234 277 289 290 303 322 335 321 317 358 350 16 106 173 177 179 182 188 190 197 200 203 207 207 208 210 211 211 222 235 243 249
268 278 283 285 292 301 298 300 301 317 316 319 332 340 216 195 191 194 196 197 201 206 209 212 215 217 218 219 222 231 246 252
254 258 261 270 282 289 279 270 295 296 310 308 301 305 315 225 207 205 201 202 202 206 210 213 218 221 222 224 222 226 245 251
267 263 260 266 269 274 279 281 289 294 295 303 301 295 305 292 214 208 208 208 211 210 210 213 216 219 221 224 218 231 239 250
289 288 294 272 272 279 275 280 280 286 292 293 295 288 287 294 247 189 204 220 220 219 214 216 217 219 219 216 227 234 236 252
299 282 268 302 276 257 277 289 289 272 274 278 275 281 282 278 283 295 231 223 228 219 216 220 227 220 224 230 230 233 236 248
342 358 282 177 269 275 279 278 281 284 279 274 272 273 279 279 277 282 280 225 237 231 232 228 223 224 225 234 235 237 241 252
314 251 253 205 275 315 314 307 292 289 281 273 271 265 268 274 275 271 276 254 228 226 224 231 226 225 230 239 245 247 249 254
265 337 1 295 288 288 301 312 320 318 318 318 288 270 269 269 267 274 265 276 239 224 217 212 223 225 230 236 243 245 248 253
254 265 292 284 280 284 295 308 315 311 308 306 304 303 288 266 263 264 272 263 269 227 218 207 207 215 220 228 237 238 243 251
270 283 294 288 288 289 285 275 298 301 307 311 310 304 306 295 266 263 263 264 259 230 223 209 207 216 228 244 240 242 248 259
321 324 313 295 287 297 296 289 292 298 299 306 303 307 305 307 293 264 253 262 260 247 227 219 221 225 226 232 239 245 250 260
324 331 276 274 282 280 300 303 301 297 292 289 295 301 301 304 305 286 255 257 256 256 235 229 231 225 229 238 241 250 259 268
Wind_Speed_850mb
8 7 12 11 7 6 26 64 53 17 11 22 24 32 71 80 71 75 72 73 73 69 60 55 49 43 40 38 35 32 29 27
5 21 14 12 19 29 28 44 45 40 2 16 40 56 69 74 79 75 72 73 73 69 60 55 48 42 39 37 34 31 28 26
6 21 12 15 21 28 21 22 47 55 13 26 52 46 60 73 78 79 75 75 73 67 60 55 48 40 36 34 31 30 30 29
11 22 16 15 25 38 12 32 47 49 31 9 41 57 74 76 78 81 79 75 71 65 59 54 50 43 37 33 31 29 30 29
7 14 18 14 31 27 14 17 17 44 12 5 58 64 75 76 77 83 78 77 72 64 60 54 50 44 37 32 30 30 31 30
10 14 17 11 17 40 25 40 28 26 9 2 45 68 80 77 75 84 80 75 70 66 63 59 53 46 39 33 32 33 34 34
13 14 11 46 8 41 51 40 46 33 22 17 37 72 80 73 73 78 73 69 67 64 62 57 52 49 44 37 34 35 37 39
10 10 15 39 37 36 41 54 32 19 25 27 19 60 67 72 75 76 74 73 68 64 61 58 55 53 48 42 37 35 38 41
22 32 41 44 55 47 30 24 50 22 30 38 29 26 23 59 75 73 76 76 71 68 65 61 58 56 53 48 40 36 38 42
37 47 44 32 57 44 38 42 68 65 46 43 39 36 47 50 73 79 79 74 74 73 68 63 57 57 56 52 43 37 34 38
46 52 47 55 52 52 68 61 69 78 63 44 46 47 38 31 47 80 86 79 73 71 68 61 61 59 57 53 46 37 36 37
21 31 31 21 33 46 71 64 62 67 79 60 49 52 56 38 16 36 43 78 77 75 68 67 64 58 54 52 47 43 40 37
10 5 8 29 28 37 47 46 47 58 72 73 54 53 58 61 51 41 33 22 89 79 80 67 66 61 52 50 46 46 43 40
8 16 10 5 43 33 45 54 60 60 56 83 75 71 76 73 69 60 42 61 41 55 91 80 71 57 47 44 44 45 44 42
12 15 12 8 32 14 32 33 38 48 60 66 82 79 77 75 71 72 63 55 73 64 58 84 74 55 47 44 47 46 47 48
4 10 4 18 30 17 28 37 29 42 47 52 59 80 83 80 73 66 75 61 74 75 70 59 67 58 52 52 52 50 53 53
5 11 8 19 30 29 20 29 30 44 55 63 73 69 79 81 73 75 72 81 55 77 73 75 74 65 65 65 61 58 57 53
12 12 12 15 43 35 14 14 34 45 53 60 68 74 78 75 94 80 79 84 72 80 79 79 77 74 71 68 67 62 55 55
18 22 14 11 36 32 31 26 30 41 51 62 65 73 81 80 81 100 84 79 80 64 87 88 83 78 73 69 69 64 62 61
21 17 8 9 31 23 20 25 25 41 54 61 78 75 81 82 84 89 96 82 73 65 88 97 87 85 78 75 75 68 60 63
Wind_Direction_850mb
130 180 192 234 239 272 289 303 293 276 174 137 165 159 152 156 163 164 166 171 171 170 171 168 167 172 179 182 182 183 184 186
117 247 253 250 296 307 312 325 336 298 161 141 152 149 155 163 163 167 168 175 173 174 176 176 174 179 186 191 193 196 199 202
245 260 268 284 291 314 304 298 327 317 286 152 162 157 159 164 166 173 173 177 178 176 180 183 180 182 192 199 204 206 209 213
229 259 284 275 303 292 297 308 327 344 316 144 179 165 165 168 172 178 177 181 183 180 185 189 185 184 194 202 210 215 220 222
260 271 289 285 307 292 279 290 309 333 323 53 179 177 172 172 175 178 183 184 186 185 188 194 191 189 196 206 216 224 229 234
224 254 276 275 313 308 332 315 340 354 300 221 186 179 176 175 179 182 185 188 188 190 193 195 196 196 199 208 218 228 234 237
231 234 276 298 321 308 323 315 325 4 16 22 193 178 175 173 181 186 189 193 194 197 199 200 202 202 203 209 222 230 237 242
234 277 289 290 303 322 335 321 317 358 350 16 106 173 177 179 182 188 190 197 200 203 207 207 208 210 211 211 222 235 243 249
268 278 283 285 292 301 298 300 301 317 316 319 332 340 216 195 191 194 196 197 201 206 209 212 215 217 218 219 222 231 246 252
254 258 261 270 282 289 279 270 295 296 310 308 301 305 315 225 207 205 201 202 202 206 210 213 218 221 222 224 222 226 245 251
267 263 260 266 269 274 279 281 289 294 295 303 301 295 305 292 214 208 208 208 211 210 210 213 216 219 221 224 218 231 239 250
289 288 294 272 272 279 275 280 280 286 292 293 295 288 287 294 247 189 204 220 220 219 214 216 217 219 219 216 227 234 236 252
299 282 268 302 276 257 277 289 289 272 274 278 275 281 282 278 283 295 231 223 228 219 216 220 227 220 224 230 230 233 236 248
342 358 282 177 269 275 279 278 281 284 279 274 272 273 279 279 277 282 280 225 237 231 232 228 223 224 225 234 235 237 241 252
314 251 253 205 275 315 314 307 292 289 281 273 271 265 268 274 275 271 276 254 228 226 224 231 226 225 230 239 245 247 249 254
265 337 1 295 288 288 301 312 320 318 318 318 288 270 269 269 267 274 265 276 239 224 217 212 223 225 230 236 243 245 248 253
254 265 292 284 280 284 295 308 315 311 308 306 304 303 288 266 263 264 272 263 269 227 218 207 207 215 220 228 237 238 243 251
270 283 294 288 288 289 285 275 298 301 307 311 310 304 306 295 266 263 263 264 259 230 223 209 207 216 228 244 240 242 248 259
321 324 313 295 287 297 296 289 292 298 299 306 303 307 305 307 293 264 253 262 260 247 227 219 221 225 226 232 239 245 250 260
324 331 276 274 282 280 300 303 301 297 292 289 295 301 301 304 305 286 255 257 256 256 235 229 231 225 229 238 241 250 259 268